DW9250 Weather Reports


Display with metric or nautical units.
time (UTC)temp
F
wind
direction
speed
MPH
gust
MPH
rain 1hr
in
rain 24hr
in
rain mn
in
humidity
%
barometer
mb
20220626180046 80 242 3.0 8.0 0.00 0.00 0.00 67 1011.1
20220626174542 80 251 3.0 11.0 0.00 0.00 0.00 67 1011.2
20220626173037 79 217 1.0 9.0 0.00 0.00 0.00 71 1011.4
20220626171538 78 170 3.0 9.0 0.00 0.00 0.00 71 1011.5
20220626170035 77 198 0.0 10.0 0.00 0.00 0.00 74 1011.6
20220626164521 77 206 4.0 11.0 0.00 0.00 0.00 71 1011.7
20220626163018 77 254 1.0 10.0 0.00 0.00 0.00 75 1011.5
20220626161519 76 209 2.0 9.0 0.00 0.00 0.00 76 1011.6
20220626160017 76 241 6.0 12.0 0.00 0.00 0.00 75 1011.7
20220626154515 76 245 2.0 13.0 0.00 0.00 0.00 77 1011.6
20220626153015 75 225 4.0 14.0 0.00 0.00 0.00 76 1011.7
20220626151513 76 229 4.0 13.0 0.00 0.00 0.00 75 1011.4
20220626150023 77 227 7.0 13.0 0.00 0.00 0.00 74 1011.3
20220626144600 77 236 0.0 10.0 0.00 0.00 0.00 73 1011.1
20220626143058 77 211 5.0 11.0 0.00 0.00 0.00 73 1011.1
20220626141556 77 244 4.0 9.0 0.00 0.00 0.00 73 1011.0
20220626140053 76 244 2.0 15.0 0.00 0.00 0.00 75 1011.1
20220626134551 75 246 1.0 9.0 0.00 0.00 0.00 75 1011.2
20220626133050 75 218 0.0 10.0 0.00 0.00 0.00 77 1011.4
20220626131555 74 202 0.0 8.0 0.00 0.00 0.00 78 1011.3
20220626130052 74 220 2.0 10.0 0.00 0.00 0.00 77 1011.3
20220626124537 73 257 3.0 9.0 0.00 0.00 0.00 78 1011.4
20220626123049 73 244 1.0 6.0 0.00 0.00 0.00 80 1011.4
20220626121525 72 195 0.0 6.0 0.00 0.00 0.00 82 1011.3
20220626120023 71 196 0.0 5.0 0.00 0.00 0.00 82 1011.3
20220626114527 71 196 0.0 0.0 0.00 0.00 0.00 82 1011.2
20220626113020 71 187 1.0 7.0 0.00 0.00 0.00 83 1011.2
20220626111518 70 187 0.0 6.0 0.00 0.00 0.00 84 1011.2
20220626110017 70 187 0.0 0.0 0.00 0.00 0.00 84 1011.1
20220626104506 70 187 0.0 0.0 0.00 0.00 0.00 84 1011.3
20220626103003 70 187 0.0 0.0 0.00 0.00 0.00 83 1011.2
20220626101502 70 187 0.0 0.0 0.00 0.00 0.00 83 1011.2
20220626100107 70 187 0.0 0.0 0.00 0.00 0.00 82 1011.3
20220626094559 70 187 0.0 0.0 0.00 0.00 0.00 81 1011.2
20220626093101 70 187 0.0 0.0 0.00 0.00 0.00 81 1011.3
20220626091558 70 187 0.0 0.0 0.00 0.00 0.00 80 1011.3
20220626090057 71 187 0.0 0.0 0.00 0.00 0.00 80 1011.4
20220626084538 71 187 0.0 0.0 0.00 0.00 0.00 79 1011.4
20220626083038 71 187 0.0 0.0 0.00 0.00 0.00 79 1011.4
20220626081526 71 187 0.0 0.0 0.00 0.00 0.00 78 1011.6
20220626080026 71 187 0.0 0.0 0.00 0.00 0.00 76 1011.5
20220626074525 72 187 0.0 2.0 0.00 0.00 0.00 75 1011.8
20220626073025 72 187 0.0 0.0 0.00 0.00 0.00 74 1011.9
20220626071535 72 187 0.0 0.0 0.00 0.00 0.00 74 1011.8
20220626070025 72 187 0.0 0.0 0.00 0.00 0.00 72 1011.9
20220626064522 73 187 0.0 0.0 0.00 0.00 0.00 72 1012.0
20220626063023 73 187 0.0 0.0 0.00 0.00 0.00 71 1012.0
20220626061502 73 187 0.0 0.0 0.00 0.00 0.00 70 1012.1
20220626060006 73 187 0.0 0.0 0.00 0.00 0.00 69 1012.3
20220626054549 73 187 0.0 0.0 0.00 0.00 0.00 69 1012.5
20220626053101 74 187 0.0 6.0 0.00 0.00 0.00 67 1012.6
20220626051549 75 188 0.0 6.0 0.00 0.00 0.00 65 1012.6
20220626050048 75 191 0.0 7.0 0.00 0.00 0.00 62 1012.8
20220626044549 76 234 1.0 9.0 0.00 0.00 0.00 61 1013.0
20220626043047 77 198 0.0 10.0 0.00 0.00 0.00 60 1013.0
20220626041552 78 178 1.0 14.0 0.00 0.00 0.00 57 1013.2
20220626040047 77 187 2.0 10.0 0.00 0.00 0.00 54 1013.2
20220626034530 77 186 0.0 4.0 0.00 0.00 0.00 57 1012.9
20220626033031 77 190 0.0 7.0 0.00 0.00 0.00 60 1012.8
20220626031515 77 196 0.0 0.0 0.00 0.00 0.00 60 1012.7
20220626030015 77 196 0.0 0.0 0.00 0.00 0.00 60 1012.7
20220626024514 77 196 0.0 0.0 0.00 0.00 0.00 61 1012.6
20220626023013 77 196 0.0 0.0 0.00 0.00 0.00 59 1012.4
20220626021512 78 196 0.0 0.0 0.00 0.00 0.00 58 1012.6
20220626020011 78 196 0.0 0.0 0.00 0.00 0.00 58 1012.3
20220626014511 79 196 0.0 0.0 0.00 0.00 0.00 57 1012.4
20220626013011 80 196 0.0 4.0 0.00 0.00 0.00 55 1012.3
20220626011610 80 196 0.0 0.0 0.00 0.00 0.00 56 1012.3
20220626010058 81 196 0.0 0.0 0.00 0.00 0.00 55 1012.4
20220626004601 81 196 0.0 0.0 0.00 0.00 0.00 54 1012.4
20220626003101 81 196 0.0 1.0 0.00 0.00 0.00 53 1012.3
20220626001556 82 196 0.0 0.0 0.00 0.00 0.00 51 1012.4
20220626000056 83 196 0.0 0.0 0.00 0.00 0.00 50 1012.4
20220625234557 83 196 0.0 0.0 0.00 0.00 0.00 50 1012.6
20220625233052 83 196 0.0 0.0 0.00 0.00 0.00 49 1012.6
20220625231541 84 196 0.0 0.0 0.00 0.00 0.00 48 1012.7
20220625230040 84 196 0.0 0.0 0.00 0.00 0.00 48 1012.9
20220625224538 84 196 0.0 0.0 0.00 0.00 0.00 46 1013.0
20220625223037 84 196 0.0 4.0 0.00 0.00 0.00 46 1013.0
20220625221536 85 196 0.0 6.0 0.00 0.00 0.00 44 1013.0
20220625220039 86 178 0.0 5.0 0.00 0.00 0.00 43 1013.0
20220625214537 87 166 0.0 1.0 0.00 0.00 0.00 42 1013.1
20220625213034 87 166 0.0 5.0 0.00 0.00 0.00 42 1013.1
20220625211523 87 166 0.0 1.0 0.00 0.00 0.00 42 1013.2
20220625210022 87 169 0.0 6.0 0.00 0.00 0.00 40 1013.4
20220625204521 87 149 0.0 9.0 0.00 0.00 0.00 39 1013.4
20220625203021 88 159 0.0 5.0 0.00 0.00 0.00 41 1013.2
20220625201529 89 135 0.0 5.0 0.00 0.00 0.00 39 1013.4
20220625200018 90 180 3.0 9.0 0.00 0.00 0.00 38 1013.6
20220625194516 89 138 0.0 6.0 0.00 0.00 0.00 39 1013.9
20220625193014 89 129 2.0 9.0 0.00 0.00 0.00 40 1014.0
20220625191512 89 181 2.0 8.0 0.00 0.00 0.00 41 1014.1
20220625190058 88 109 1.0 6.0 0.00 0.00 0.00 39 1014.4
20220625184556 88 182 5.0 12.0 0.00 0.00 0.00 41 1014.7
20220625183055 88 195 1.0 10.0 0.00 0.00 0.00 43 1014.9
20220625181553 88 157 0.0 6.0 0.00 0.00 0.00 42 1015.0